Chongqing, China

5:50 PM CST on November 18, 2019 (GMT +0800)
Jiangbei

Weather History for ZUCK - September, 2019

Change the Weather History Date:

Thursday, September 12, 2019

  Actual Average (WUND) Record (WUND)
Temperature  
Mean Temperature 90 °F -  
Max Temperature 98 °F - - (-1)
Min Temperature 82 °F - - (-1)
Cooling Degree Days 25    
Growing Degree Days 40 (Base 50)    
Moisture  
Dew Point 70 °F    
Average Humidity 51    
Maximum Humidity 66    
Minimum Humidity 29    
Precipitation  
Precipitation 0.00 in - - ()
Sea Level Pressure  
Sea Level Pressure 29.73 in    
Wind  
Wind Speed 7 mph ()    
Max Wind Speed 16 mph    
Max Gust Speed -    
Visibility 11.5 miles    
Events Rain    
Averages and records for this station are not official NWS values.
T = Trace of Precipitation, MM = Missing Value Source: Averaged Metar Reports

Daily Weather History Graph

Daily Weather History Graph

Search for Another Location

Airport or City:

Astronomy

Sep. 12, 2019 Rise Set
Actual Time 6:36 AM CST 7:03 PM CST
Civil Twilight 6:12 AM CST 7:27 PM CST
Nautical Twilight 5:44 AM CST 7:55 PM CST
Astronomical Twilight 5:15 AM CST 8:23 PM CST
Moon 6:18 PM CST (9/12) 4:39 AM CST (9/12)
Length of Visible Light 13h 15m
Length of Day
12h 27m
Waxing Gibbous, 96% of the Moon is Illuminated
Sep 12
Waxing Gibbous
Sep 14
Full
Sep 22
Last Quarter
Sep 29
New
Oct 6
First Quarter

Hourly Weather History & Observations

Time (CST) Temp. Heat Index Dew Point Humidity Pressure Visibility Wind Dir Wind Speed Gust Speed Precip Events Conditions
12:00 AM 86.0 °F 90.4 °F 69.8 °F 58% 29.83 in - East 6.7 mph - N/A   Clear
2:00 AM 83 °F - 73 °F 65% 29.71 in 12 mi WNW 2.2 mph - -  
2:00 AM 84.2 °F 88.4 °F 69.8 °F 62% 29.80 in - East 6.7 mph - N/A   Clear
3:00 AM 82.4 °F 86.3 °F 69.8 °F 66% 29.80 in - East 6.7 mph - N/A   Clear
4:00 AM 82.4 °F 86.3 °F 69.8 °F 66% 29.77 in - SE 8.9 mph - N/A   Clear
5:00 AM 82.4 °F 86.3 °F 69.8 °F 66% 29.77 in - SE 6.7 mph - N/A   Clear
6:00 AM 82.4 °F 85.4 °F 68.0 °F 62% 29.77 in - ESE 6.7 mph - N/A   Clear
7:00 AM 82.4 °F 85.4 °F 68.0 °F 62% 29.80 in - ESE 8.9 mph - N/A   Clear
8:00 AM 83 °F - 73 °F 64% 29.72 in 12 mi NW 4.5 mph - - Rain Light Rain
8:00 AM 84.2 °F 88.4 °F 69.8 °F 62% 29.80 in - ESE 6.7 mph - N/A   Clear
10:00 AM 89.6 °F 96.2 °F 71.6 °F 55% 29.83 in - ESE 6.7 mph - N/A   Clear
11:00 AM 92 °F - 71 °F 41% 29.71 in 18 mi East 4.5 mph - -  
11:00 AM 89.6 °F 94.7 °F 69.8 °F 52% 29.80 in - SE 11.2 mph - N/A   Clear
12:00 PM 93.2 °F 100.5 °F 71.6 °F 49% 29.77 in - SE 11.2 mph - N/A   Clear
1:00 PM 95.0 °F 101.3 °F 69.8 °F 44% 29.74 in - SSE 13.4 mph - N/A   Clear
2:00 PM 98 °F - 69 °F 29% 29.61 in 19 mi South 6.7 mph - -  
2:00 PM 96.8 °F 103.1 °F 69.8 °F 41% 29.71 in - SE 13.4 mph - N/A   Clear
3:00 PM 96.8 °F 103.1 °F 69.8 °F 41% 29.68 in 6.2 mi SSE 15.7 mph - N/A   Partly Cloudy
4:00 PM 96.8 °F 101.8 °F 68.0 °F 39% 29.68 in 6.2 mi SSE 15.7 mph - N/A   Partly Cloudy
5:00 PM 98 °F - 68 °F 29% 29.55 in 19 mi South 4.5 mph - -   Partly Cloudy
5:00 PM 96.8 °F 101.8 °F 68.0 °F 39% 29.65 in 6.2 mi SSE 13.4 mph - N/A   Scattered Clouds
6:00 PM 95.0 °F 101.3 °F 69.8 °F 44% 29.65 in 6.2 mi SSE 8.9 mph - N/A   Partly Cloudy
7:00 PM 93.2 °F 98.8 °F 69.8 °F 46% 29.68 in 6.2 mi ESE 8.9 mph - N/A   Partly Cloudy
8:00 PM 91.4 °F 96.8 °F 69.8 °F 49% 29.68 in - ESE 6.7 mph - N/A   Clear
9:00 PM 89.6 °F 94.7 °F 69.8 °F 52% 29.74 in - ESE 6.7 mph - N/A   Clear
10:00 PM 87.8 °F 92.6 °F 69.8 °F 55% 29.74 in - East 6.7 mph - N/A   Clear
11:00 PM 90 °F - 69 °F 41% 29.64 in 15 mi SE 2.2 mph - -  
11:00 PM 87.8 °F 91.4 °F 68.0 °F 52% 29.74 in - East 8.9 mph - N/A   Clear